Showing default

OPS 6073 (DMSP 4A F2), 2669

Orbit data source: Space-Track

OPS 6073 (DMSP 4A F2), 2669 is a payload satellite owned by USAF SSD (US) in SSO that was launched on Wed, 08 Feb 1967 UTC via a THOR BURNER 2 launch vehicle from the Air Force Western Test Range (AFWTR). Payload-class satellites include a variety of spacecraft equipped with specific instruments for various scientific and technological missions. These include communications satellites like Starlink; space stations such as the ISS; scientific satellites like the Hubble; Earth observation satellites from companies like Planet Labs, Umbra, and HawkEye 360; GPS; miniature CubeSats for education and research; and military/defense satellites.

Loading next visibility...
Identifier
2669, 1967-010A
Orbit
SSO
Country
Flag of USUS
Related business
Manufacturer
RCA/East Windsor
Mission
Non-operational spacecraft
Bus & Motor
DMSP BLOCK 4A, Unknown motor
Mass
79 kg wet, 79 kg dry
Launch date (UTC)
1967-02-08 (59 years ago)
Launch vehicle
THOR BURNER 2
Launch site
Air Force Western Test Range (AFWTR)
Object type
Payload
Rocket body
Debris
Shape & HBR
Unknown
Radar Cross Section
Medium (>0.1 m² and <1 m²)

Expand to show TLE details & history
Last TLE update: 6 days ago

TLE from 6 days ago
0 OPS 6073 (DMSP 4A F2)
1 02669U 67010A   26154.99855375  .00000145  00000-0  76279-4 0  9991
2 02669  99.1054 157.1981 0049764  61.0117 299.6038 14.28216231 82457
Epoch: 2026-06-03T23:57Z
TLE epoch observation values (Epoch: 2026-06-03T23:57:55.043Z)
Latitude
0.00002°
Longitude
-94.73038°
Altitude
783.103 km
Speed
7.471 km/s
True Right ascension
10h 28m 47s
True Declination
0° 00' 00"
Sunlit
Object was in daylight at epoch
Visualization orbit readout
Latitude
Unknown
Longitude
Unknown
Altitude
Unknown
Speed
Unknown
Apparent Right ascension
Unknown
Apparent Declination
Unknown
Sunlit
N/A
Visualization observer readout
Local Sidereal Time
07:39:01
Azimuth
Unknown
Elevation
Unknown
Doppler factor
Unknown
Orbital elements
Apogee altitude
830.562 km
Perigee altitude
759.171 km
Semi-major axis
7,173.003 km
Eccentricity
0.00498
Inclination
99.1054°
RAAN
157.1981°
Arg. of periapsis
61.0117°
True anomaly
299.10646°
Mean anomaly
299.6038°
Eccentric anomaly
299.35528°
Mean motion
3.57266 °/min
Orbital period
100.77 mins
BSTAR
0.000076279
Loading maneuver chart data...
Computing Atmospheric mass density...
Loading historical data...
Loading historical data...
Loading historical data...
Loading historical data...
Loading historical data...
Loading historical data...
Loading historical data...
Other satellites on launch #10 in the year 1967 (1967-02-08 UTC)

Documentation

Showing up to 5 results
|